Info for pilots

Image

Airfield Info:

EBUL
N51 08.7 - E003 28.6
ELEV 95' / 29m
RWY 07 / 25
799m * 45m (CIV) - 2980m (MIL)
Ursel Radio 135.130
Tel Aero Club Brugge : +32(0)9 374 25 75
Tel Vliegclub Ursel : +32(0)9 374 12 90

Operational Hours
FRI: 14h00LT - SS+30 MIN
SAT, SUN and HOL: TKOF and LDG: 10h00LT - SS+30 MIN
After 20h00LT to SS+30 MIN: only LDG allowed (PN)

Local Traffic Regulations
The use of the AD is subject to PPR from the OPR;
AD given in concession to the CIV club outside MIL ACT;
Solo training flights can only be performed after two reconnaissance flights with instructor. The solo training flight must be performed within six weeks after the first reconnaissance flight;
Jet aircraft operations not allowed.

Obstacles:
trees between 10M AGL and 22M AGL, caution when crosswind:
North of the RWY, 75M from CL, along the whole length of the RWY;
South of the RWY, 75M from CL, and at THR RWY 25 from THR RWY 07 to 140M east of THR RWY 07



Image

Image

Watch out!

PPR request:
Vliegclub Ursel: (VCU) +32(0)9 374 12 90
Aeroclub Brugge: (ACB) +32(0)9 374 25 75
Ursel Radio: 135.130 MHz

Flight Procedures:
RWY 07 and 25 left hand circuit, 1.200 FT QNH

Image

Taxi procedures:
RWY 07 (TKOF):
taxi on the north side of the RWY to the HLDG position of RWY 07

RWY 07 (LDG):
after landing roll out to the second intersection (THR RWY 25), turn left, turn left again, taxi via the TWY to the first intersection, turn left, cross the RWY (check for landing ACFT), taxi on the south side of the RWY to the AD reporting office

RWY 25 (TKOF):
taxi on the north side of the first intersection, turn left, next turn right, taxi via the TWY to the second intersection, turn right, taxi to the HLDG of RWY 25

RWY 25 (LDG):
after landing roll out to the end of the RWY, taxi on the south side of the RWY to the AD reporting office.





Image

Taxi & Circuit?

Image
Image
Image
Image

Current Metars - Auto refresh

EBOS - Oostende
2021/12/06 09:20 EBOS 060920Z 17006KT 3100 BR FEW040 02/01 Q1013 BECMG 6000


EBAW - Antwerpen
2021/12/06 09:20 EBAW 060920Z 13006KT 0200 R11/0450N R29/0400N FG VV001 01/M00 Q1015 NOSIG


EBBR - Brussel
2021/12/06 09:20 EBBR 060920Z 17003KT 140V200 0500 R25L/0800U R25R/1300N R01/1300D FG OVC002 01/M00 Q1015 BECMG 1500 BR SCT020

Source : NOAA.GOV

Current TAFs - Auto refresh

EBOS - Oostende
2021/12/06 06:27 TAF EBOS 060510Z 0606/0712 18011KT 4000 BR FEW030 PROB30 TEMPO 0606/0609 0400 FG BKN001 BECMG 0609/0611 9999 NSW TEMPO 0614/0618 4000 -RA SCT009 BKN014 BECMG 0617/0619 29018KT PROB40 TEMPO 0618/0624 4000 SHRA SHRAGS SCT008 BKN012TCU BECMG 0707/0710 17009KT

EBAW - Antwerpen
2021/12/06 09:27 TAF TAF EBAW 060800Z 0609/0618 19005KT 0600 FG BKN001 BECMG 0609/0611 4000 BR BKN004 BECMG 0611/0613 8000 NSW SCT020 TEMPO 0616/0618 3000 RASN SCT006 BKN010

EBBR - Brussel
2021/12/06 06:27 TAF TAF EBBR 060510Z 0606/0712 13002KT 1200 BCFG BKN002 TEMPO 0606/0608 0400 FG BKN001 BECMG 0608/0610 19011KT 9999 NSW SCT014 SCT025 TEMPO 0617/0621 4000 -RA SCT008 BKN012 BECMG 0621/0623 26009KT PROB30 TEMPO 0621/0702 4000 SHRA SHRAGS SCT008 BKN012TCU

Source : NOAA.GOV
Image

Webcam

Direction runway 07 :